Regional Weather Roundup
Issued by NWS

Home | Current Version | Previous Version | Text Only | Print | Product List | Glossary On
Versions: 1 2 3 4 5 6 7 8 9 10 11 12 13 14 15 16 17 18 19 20 21 22 23 24 25 26 27 28 29 30 31 32 33 34 35 36 37 38 39 40 41 42 43 44 45 46 47 48 49 50
000
ASUS43 KLMK 191010
RWRKY
KENTUCKY REGIONAL WEATHER ROUNDUP
NATIONAL WEATHER SERVICE LOUISVILLE KY
600 AM EDT SAT APR 19 2014

NOTE "FAIR" INDICATES FEW OR NO CLOUDS BELOW 12,000 FEET
WITH NO SIGNIFICANT WEATHER AND/OR OBSTRUCTIONS TO VISIBILITY.

KYZ001>023-026-027-061>063-070>075-191100-
WESTERN AND SOUTH CENTRAL KENTUCKY

CITY           SKY/WX    TMP DP  RH WIND       PRES   REMARKS
PADUCAH        CLEAR     47  43  86 CALM      30.21R
HENDERSON      CLEAR     52  41  66 NE3       30.22S
OWENSBORO      PTCLDY    53  43  69 NE8       30.22R
HOPKINSVILLE   PTCLDY    50  45  81 NW1       30.19S
BOWLING GREEN  PTCLDY    46  44  93 CALM      30.21R
GLASGOW        CLEAR     43  43  99 CALM      30.20R
$$

KYZ024-025-028>034-038-045-046-053-191100-
NORTH CENTRAL KENTUCKY

CITY           SKY/WX    TMP DP  RH WIND       PRES   REMARKS
LOUISVILLE/SDF MOCLDY    51  40  65 N6        30.23R
LOUISVILLE/LOU PTCLDY    53  40  61 N3        30.23R
FORT KNOX      PTCLDY    52  40  63 N8        30.21R
$$

KYZ035>037-039>044-047>052-055>060-089>105-191100-
NORTHEAST KENTUCKY

CITY           SKY/WX    TMP DP  RH WIND       PRES   REMARKS
LEXINGTON      CLEAR     48  38  68 NE9       30.22R
COVINGTON      MOCLDY    49  37  63 N8        30.25R
FRANKFORT      PTCLDY    51  39  63 NE3       30.22R
$$

KYZ054-064>069-076>088-106>120-191100-
SOUTHEAST KENTUCKY

CITY           SKY/WX    TMP DP  RH WIND       PRES   REMARKS
JACKSON        PTCLDY    55  33  43 CALM      30.19R
LONDON         PTCLDY    53  36  52 N6        30.18S
SOMERSET       CLEAR     45  39  81 CALM      30.20S
MIDDLESBORO    CLOUDY    44  42  93 CALM      30.17R
MONTICELLO     SUNNY     40  39  96 CALM      30.21R
$$




USA.gov is the U.S. government's official web portal to all federal, state and local government web resources and services.